Location: Maccacari
(45.1333°N, 11.1333°E)
Time: 01:20:32
(UTC+00:00)

Tiros 1 despin weight - Pass Details

Date: 26 January 2021
Orbit: 593 x 642 km, 48.2° (Epoch: 07 March)

Event Time Altitude Azimuth Distance (km) Brightness Sun altitude
Rises 12:24:01 0° 220° (SW) 2,899 ? 25.0°
Reaches altitude 10° 12:26:27 10° 212° (SSW) 1,987 ? 24.9°
Maximum altitude 12:30:39 37° 145° (SE) 965 ? 24.7°
Drops below altitude 10° 12:34:49 10° 79° (ENE) 1,967 ? 24.5°
Sets 12:37:13 0° 71° (ENE) 2,865 ? 24.4°
